Location: Becquincourt
(49.9101°N, 2.8160°E)
Time: 13:44:44
(UTC+00:00)

Daily predictions for brighter satellites

Satellite Brightness Start Highest point End
(mag) Time Altitude Azimuth Time Altitude Azimuth Time Altitude Azimuth
Ariane Rocket 3.2 20:34:04 10° S 20:39:10 76° WSW 20:44:17 10° NNW
PSLV R/B 4.3 20:37:01 10° N 20:41:11 73° WNW 20:45:21 10° SSW
CZ-4B R/B 1.1 20:42:28 10° N 20:45:21 78° WNW 20:48:15 10° SSW
USA 234 4.2 20:41:38 10° ENE 20:47:53 49° N 20:54:08 10° WNW
ATLAS 2AS CENTAUR R/B 4.3 20:42:30 10° WNW 20:48:11 27° WSW 20:53:36 10° SSW
ARIANE 5 R/B 3.8 20:44:46 10° SE 20:48:39 30° ENE 20:52:31 10° N
Terra 2.5 20:44:33 10° SE 20:49:02 42° ENE 20:53:31 10° N
SPOT 3 Rocket 3.6 20:45:33 10° SSE 20:50:46 90° WSW 20:56:02 10° NNW
SPOT 5 2.8 20:47:27 10° SSE 20:51:43 60° ENE 20:56:00 10° N
RESURS DK-1 3.6 20:48:04 10° NW 20:51:54 37° WSW 20:55:43 10° S
USA 276 2.0 20:49:46 10° W 20:52:48 89° NNW 20:55:50 10° E
FALCON 9 DEB 3.2 20:50:51 10° WNW 20:54:07 72° NNE 20:57:23 10° ESE
Cosmos 1455 4.0 20:51:01 10° NNW 20:54:22 29° W 20:57:42 10° SSW
Cosmos 1726 Rocket 4.0 20:52:51 10° N 20:57:03 48° ENE 21:01:15 10° SSE
IRAS Rocket 4.3 20:56:13 10° NNE 21:01:51 85° ESE 21:07:24 10° SSW
Cosmos 1331 Rocket 4.0 20:57:56 10° SSW 21:03:14 81° ESE 21:08:34 10° NNE
Cosmos 2074 Rocket 4.3 20:57:10 10° NNW 21:03:25 72° W 21:09:36 10° S
Cosmos 2082 Rocket 2.7 20:59:04 10° S 21:04:23 42° ESE 21:09:42 10° NE
Helios 1A Rocket 2.9 21:04:58 10° SSE 21:09:04 80° ENE 21:13:11 10° NNW
Spot 2 Rocket 3.5 21:04:23 10° SSE 21:09:29 89° ENE 21:14:39 10° NNW
Cosmos 1328 4.0 21:05:43 10° S 21:09:38 56° E 21:13:33 10° NNE
Cosmos 2084 Rocket 3.8 21:06:29 10° NW 21:10:16 49° SW 21:13:53 12° SSE
Cosmos 2360 Rocket 4.2 21:07:50 10° N 21:11:57 20° NE 21:16:02 10° E
Nadezhda 1 Rocket 3.9 21:08:57 10° S 21:15:01 80° E 21:21:07 10° NNE
X-37B 2.6 21:23:28 10° SW 21:24:40 12° SSW 21:25:27 11° S
ERS-1 Rocket 3.1 21:22:07 10° S 21:27:05 76° WSW 21:32:09 10° NNW
Cosmos 1892 3.3 21:26:27 15° SSE 21:29:09 38° E 21:32:42 10° NNE
Meteor 1-21 Rocket 4.5 21:26:14 10° SSW 21:31:51 73° WNW 21:37:36 10° N
Cosmos 2228 4.3 21:30:40 10° NNW 21:34:34 36° W 21:38:27 10° SSW
Cosmos 1302 Rocket 3.9 21:30:09 10° SSW 21:35:20 76° ESE 21:40:32 10° NNE
Cosmos 192 4.3 21:33:41 10° SSW 21:38:35 88° WNW 21:43:31 10° NNE
Cosmos 968 Rocket 3.8 21:37:00 10° NNW 21:42:10 63° WSW 21:46:30 15° S
Cosmos 1892 Rocket 3.5 21:38:01 10° S 21:42:22 84° E 21:46:46 10° N
ASTRO F (AKARI) 4.4 21:40:19 18° SSE 21:42:48 83° ENE 21:46:18 10° NNW
Cosmos 1697 Rocket 4.0 21:39:39 10° NW 21:44:33 32° WSW 21:49:26 10° SSW
Cosmos 1980 Rocket 2.6 21:39:55 10° NW 21:45:31 58° WSW 21:50:07 15° S
Cosmos 2219 Rocket 4.4 21:43:49 10° N 21:47:38 18° NE 21:51:27 10° ENE
SL-16 R/B 2.8 21:42:48 10° NNW 21:48:21 50° NE 21:52:57 15° SE
Cosmos 2058 Rocket 3.1 21:45:30 10° N 21:49:56 85° W 21:53:20 17° S
Cosmos 1408 2.3 21:48:44 16° S 21:51:24 85° E 21:54:53 10° N
Cosmos 1626 Rocket 4.2 21:50:06 19° SSE 21:52:40 38° E 21:56:44 10° NNE
SL-8 Rocket 4.0 21:46:50 10° N 21:53:05 81° E 21:58:01 17° SSE
CZ-2C R/B 3.9 21:49:17 10° N 21:53:50 73° WNW 21:58:16 10° SSW
Cosmos 2369 4.5 21:48:26 10° NW 21:53:53 46° WSW 21:58:31 14° S
ATLAS 5 CENTAUR R/B 1.5 21:50:51 11° SSW 21:54:14 46° SE 21:58:15 10° NE
USA 267 4.0 21:48:54 10° ENE 21:54:28 29° SE 21:59:31 12° S
Resurs 01 Rocket 4.5 21:54:08 10° W 21:55:03 11° W 21:55:57 10° WNW
SJ 16-02 2.5 21:56:26 10° N 22:00:32 35° ENE 22:03:35 16° ESE
SL-4 R/B 3.7 22:04:44 13° ESE 22:04:44 13° ESE 22:05:31 10° E
In-Cosmos 22 Rocket 4.2 21:59:05 16° S 22:03:35 69° E 22:08:58 10° NNE
COSMOS 2406 3.9 21:59:01 10° SW 22:04:42 59° NW 22:10:25 10° NNE
Cosmos 1825 2.2 22:08:00 24° S 22:10:06 64° E 22:13:50 10° NNE
Cosmos 1833 Rocket 4.3 22:05:07 10° WSW 22:10:16 36° NW 22:15:27 10° NNE
Cosmos 1867 4.5 22:06:46 10° NW 22:11:46 37° WSW 22:15:18 18° S
Cosmos 2366 rocket 4.1 22:07:06 10° N 22:13:29 87° W 22:18:15 19° S
Cosmos 1869 3.2 22:12:19 10° N 22:16:15 88° WSW 22:18:25 25° S
Cosmos 2218 Rocket 4.1 22:13:31 10° NNW 22:19:57 79° W 22:24:43 19° S
Cosmos 2322 Rocket 2.5 22:16:48 10° NNW 22:22:28 64° ENE 22:26:28 20° SE
GP-B 3.4 22:18:54 10° N 22:23:19 66° W 22:26:26 19° SSW
Meteor 1-27 4.3 22:18:03 10° NNW 22:23:37 73° W 22:27:27 21° S
ARIANE 5 R/B 3.8 22:21:46 14° SSW 22:25:02 35° W 22:29:06 10° NNW
Terra 3.4 22:22:57 10° SSW 22:26:55 28° W 22:31:01 10° NW
SAR-Lupe-4 3.5 22:23:57 10° NNE 22:27:33 87° WNW 22:29:35 24° SSW
USA 276 2.5 22:25:33 10° W 22:28:25 39° SSW 22:28:43 38° S
FALCON 9 DEB 4.1 22:27:19 10° W 22:30:11 28° SW 22:30:31 27° SSW
USA 234 3.5 22:23:57 10° ESE 22:30:28 70° NNE 22:37:00 10° WNW
BREEZE-M DEB (TANK) 3.4 22:33:08 10° W 22:36:08 80° S 22:46:54 10° ESE
Cosmos 1633 2.4 22:39:01 35° S 22:40:18 73° E 22:43:46 10° NNE
Cosmos 1992 Rocket 4.3 22:37:42 10° SSW 22:42:55 68° WNW 22:48:10 10° NNE
Cosmos 2333 Rocket 3.2 22:37:48 10° NNW 22:43:17 42° NE 22:48:05 13° ESE
Okean 1-7 Rocket 4.1 22:40:57 18° SSW 22:44:12 58° WNW 22:48:40 10° N
Cosmos 1758 Rocket 3.6 22:42:24 29° S 22:44:31 66° E 22:48:55 10° NNE
ASTEX 1 4.2 22:42:19 10° N 22:47:07 47° WNW 22:51:10 14° SSW
Cosmos 2082 Rocket 3.5 22:43:07 10° WSW 22:48:30 41° NW 22:53:53 10° NNE
Cosmos 1606 2.7 22:48:58 10° N 22:52:51 73° E 22:54:21 35° SSE
Cosmos-2242 2.9 22:48:57 10° NNW 22:53:13 82° W 22:55:10 32° S
Cosmos 1812 Rocket 3.7 22:49:31 10° NNW 22:53:58 66° W 22:56:09 28° S
Cosmos 2360 Rocket 2.3 22:51:15 10° NNW 22:56:58 75° ENE 23:00:31 24° SE
ADEOS Rocket 3.6 22:53:14 22° SSE 22:58:24 77° ENE 23:06:13 10° NNW
Cosmos 1340 Rocket 3.7 22:58:42 29° SE 22:59:52 35° E 23:03:31 10° NNE
Gbstr 26 Del rocket 3.5 22:59:00 31° S 23:00:20 40° SE 23:04:59 10° ENE
Cosmos 1821 Rocket 4.1 23:01:28 10° NNW 23:07:40 71° W 23:11:22 25° S
Cosmos 1602 Rocket 4.0 23:05:35 23° SSW 23:08:06 56° WNW 23:12:23 10° N
BREEZE-M DEB (TANK) 4.2 23:12:25 20° ESE 23:12:25 20° ESE 23:14:54 10° E
SL-27 R/B 4.1 23:13:18 18° E 23:13:18 18° E 23:15:37 10° NE
Cosmos 972 Rocket 4.2 23:10:12 10° NNW 23:15:25 75° ENE 23:18:41 26° SSE
Cosmos 44 3.6 23:14:09 33° SSE 23:15:30 42° ESE 23:19:43 10° NE
ERS-2 2.8 23:18:51 10° NNE 23:22:13 37° E 23:22:56 33° SE
Cosmos 2237 Rocket 4.4 23:18:25 10° NNW 23:22:49 22° NE 23:27:11 10° E
ALOS 2 2.7 23:21:37 34° S 23:23:27 68° WSW 23:27:51 10° NNW
Spot 4 4.4 23:21:49 27° SSW 23:24:05 46° W 23:28:43 10° NNW
CENTAUR R/B 3.8 23:22:31 18° SE 23:24:25 21° ESE 23:29:08 10° ENE
Cosmos 1605 Rocket 4.4 23:18:06 10° N 23:24:26 56° ENE 23:28:27 23° SE
COSMOS 2428 3.5 23:24:14 10° NNW 23:29:45 47° NE 23:34:37 13° SE
NOSS 8 (A) 4.2 23:29:30 55° S 23:29:55 62° SE 23:32:51 10° NE
Cosmos 1777 Rocket 4.4 23:25:36 10° NNW 23:30:44 52° WSW 23:33:07 29° SSW
H-2A R/B 3.5 23:26:43 10° NNE 23:30:57 79° WNW 23:32:48 32° SSW
Cosmos 2058 3.0 23:29:58 34° SSW 23:31:43 76° WNW 23:35:55 10° N
Nadezhda 3 Rocket 4.1 23:28:02 23° SSW 23:32:01 69° WNW 23:38:13 10° N
SL-16 R/B 3.2 23:27:15 10° NW 23:32:15 32° WSW 23:34:48 22° SSW
Cosmos 2219 Rocket 2.5 23:27:05 10° NNW 23:32:45 65° ENE 23:36:41 20° SE
Cosmos 1953 Rocket 3.5 23:33:03 35° S 23:34:52 81° E 23:39:17 10° NNE
USA 267 3.2 23:31:31 10° ENE 23:38:06 82° SE 23:44:40 10° SW
ATLAS 5 CENTAUR R/B 3.3 23:35:25 10° W 23:38:55 31° NNW 23:42:56 10° NNE
SJ 16-02 2.6 23:35:08 10° NW 23:39:00 30° W 23:40:31 24° SW
SL-4 R/B 1.5 23:40:05 27° WSW 23:41:53 74° SSE 23:45:36 10° ENE
Cosmos 2322 3.9 23:36:13 10° NNW 23:41:55 70° ENE 23:45:45 21° SE
Cosmos 1825 Rocket 3.9 23:41:10 28° SW 23:43:13 56° WNW 23:47:31 10° N
Cosmos 1898 Rocket 4.3 23:38:14 10° NNW 23:43:15 47° ENE 23:47:02 17° SE
COSMOS 2455 4.2 23:44:43 10° NNW 23:50:20 38° NE 23:55:54 10° ESE
Cosmos 2221 2.5 23:46:09 10° NNW 23:50:32 83° W 23:52:14 37° S
PSLV R/B 3.9 23:48:53 10° NNE 23:53:38 66° ESE 23:55:36 34° S
